sat.trackr.live / text

‹ back to catalog

STARLINK-32625

NORAD 62154 · 2024-224R

PAYLOAD ACTIVE UNKNOWN

§ Identity

Operator
Country
US
Launch date
2024-11-30
Launch site
AFETR
Launch vehicle
Mass (kg)
RCS (m²)

Purposes: comms

External: N2YO · Heavens-Above · Gunter

§ Orbital elements

Epoch: 2026-05-24T20:18:11.309472Z

Period
94.27 min
Inclination
43.0027°
Eccentricity
0.0001453
Mean motion
15.27572488 rev/d
Perigee alt
482.1 km
Apogee alt
484.1 km
Semi-major
6,861.2 km
B*
9.5162e-4
RAAN
88.3103°
Arg perigee
273.8573°
Mean anomaly
86.2113°
Rev number
8,401

§ Raw data

STARLINK-326251 62154U 24224R   26144.84596423  .00026011  00000+0  95162-3 0  99952 62154  43.0027  88.3103 0001453 273.8573  86.2113 15.27572488 84010

JSON: /api/v1/satellites/62154 · /tle

For live sub-satellite position, see the globe view (requires WebGL).

§ Visibility from observer

Set your observer location to see the next 7 days of passes ≥ 10°. The values pass through the URL so the page stays shareable.

No JS? Fill the form by hand. The geolocation button needs JavaScript.